Torna al catalogo

STARLINK-4067

AttivoComunicazioniVLEO
NORAD 52668·PAYLOAD·🇺🇸 United States

Lanciato May 18, 2022 da Cape Canaveral Space Force Station

Loading…

Prossimi Passaggi (prossime 24 ore)

TLE

AggiornatoSource: CelesTrak SupGP

Epoca: Sep 14, 2026, 20:50 UTC

1 52668C 22053N   26257.86854167 -.00025114  00000+0 -80755-3 0  2575
2 52668  53.1592  12.0109 0001081  81.8039 197.4259 15.31716079    14

Traccia STARLINK-4067 in tempo reale con AllMySat

Download on the App Store